COSMOS 249 DEB *, 3790

Orbit data source: Space-Track

COSMOS 249 DEB *, 3790 is space debris in LEO originally from a launch on Sun, 20 Oct 1968 UTC launched from the Tyuratam Missile And Space Complex (TTMTR). Debris objects in space refer to the collection of defunct objects orbiting the Earth. Examples of debris include non-operational satellites, rocket bodies, and fragments generated from explosions, collisions, or faulty payload assembly.

Loading next visibility...
Identifier
3790, 1968-091AX
Orbit
LEO
Country
Flag of CISCIS
Related business
Manufacturer
Unknown
Mission
Spacecraft
Bus & Motor
Unknown
Mass
Unknown
Launch date (UTC)
1968-10-20 (58 years ago)
Launch vehicle
Unknown
Launch site
Tyuratam Missile And Space Complex (TTMTR)
Object type
Payload
Rocket body
Debris
Shape & HBR
Unknown shape, 0.1 m
Radar Cross Section
Medium (>0.1 m² and <1 m²)

Expand to show TLE details & history
Last TLE update: 17 hours ago

TLE from 17 hours ago
0 COSMOS 249 DEB *
1  3790U 68091AX  26171.34290632  .00000238  00000-0  13743-3 0  9993
2  3790  62.9953 301.3155 0712811 316.3210  38.3448 13.40691438767907
Epoch: 2026-06-20T08:13Z
TLE epoch observation values (Epoch: 2026-06-20T08:13:47.106Z)
Latitude
0.00001°
Longitude
-90.68967°
Altitude
705.93 km
Speed
7.702 km/s
True Right ascension
20h 05m 15s
True Declination
0° 00' 00"
Sunlit
Object was in full shadow at epoch
Visualization orbit readout
Latitude
Unknown
Longitude
Unknown
Altitude
Unknown
Speed
Unknown
Apparent Right ascension
Unknown
Apparent Declination
Unknown
Sunlit
N/A
Visualization observer readout
Local Sidereal Time
11:43:28
Azimuth
Unknown
Elevation
Unknown
Doppler factor
Unknown
Orbital elements
Apogee altitude
1,639.026 km
Perigee altitude
572.131 km
Semi-major axis
7,483.715 km
Eccentricity
0.07128
Inclination
62.9953°
RAAN
301.3155°
Arg. of periapsis
316.321°
True anomaly
43.78353°
Mean anomaly
38.3448°
Eccentric anomaly
41.02559°
Mean motion
3.35249 °/min
Orbital period
107.38 mins
BSTAR
0.00013743
Loading maneuver chart data...
Computing Atmospheric mass density...

Documentation

Showing up to 5 results
|